Regional Weather Roundup
Issued by NWS Albany, NY

Home | Current Version | Previous Version | Text Only | Print | Product List | Glossary On
Versions: 1 2 3 4 5 6 7 8 9 10 11 12 13 14 15 16 17 18 19 20 21 22 23 24 25 26 27
000
ASUS41 KALY 252010
RWRALY

NEW YORK STATE HOURLY WEATHER ROUNDUP
NATIONAL WEATHER SERVICE ALBANY NY
400 PM EDT TUE APR 25 2017

NOTE: "FAIR" INDICATES FEW OR NO CLOUDS BELOW 12,000 FEET WITH NO
SIGNIFICANT WEATHER AND/OR NO OBSTRUCTIONS TO VISIBILITY.

NYZ032-033-038>043-046>054-057>066-NYZ062>081-082-084-252100-
EAST


CITY           SKY/WX    TMP DP  RH WIND       PRES   REMARKS
ALBANY         LGT RAIN  54  48  80 N6        30.11F
GLENS FALLS    LGT RAIN  54  46  74 NW8       30.13F
POUGHKEEPSIE   CLOUDY    56  52  86 NE10      30.03F
NEWBURGH       DRIZZLE   54  54 100 NE9       30.04F FOG
MONTGOMERY     LGT RAIN  53  51  93 NE13      30.01F
WHITE PLAINS   LGT RAIN  55  53  93 E17G24    29.99F FOG
ISLIP          LGT RAIN  54  53  97 E18G28    29.98F FOG
NEW YORK CITY  LGT RAIN  55  51  86 NE30G37   29.97F
CENTRAL PARK   LGT RAIN  53  52  96 E14G33    30.00F
$$

NYZ005>009-017-018-044>046-055-056-252100-
CENTRAL


CITY           SKY/WX    TMP DP  RH WIND       PRES   REMARKS
FULTON         LGT RAIN  55  48  77 SE12G21   30.00F
SYRACUSE       CLOUDY    57  49  74 E16       30.00F
ROME           CLOUDY    54  47  77 E16G25    30.07F
ELMIRA         CLOUDY    60  49  66 E10       29.96F
BINGHAMTON     CLOUDY    57  49  74 SE14G23   29.98F
MONTICELLO     CLOUDY    50  48  93 E18       30.02F
$$

NYZ026>034-041>043-087-252100-
NORTH


CITY           SKY/WX    TMP DP  RH WIND       PRES   REMARKS
WATERTOWN      LGT RAIN  54  51  90 SE3       30.02F
FORT DRUM      NOT AVBL
OGDENSBURG     DRIZZLE   52  47  82 E8        30.08F
MASSENA        LGT RAIN  53  45  74 NE6       30.11F
SARANAC LAKE   LGT RAIN  49  46  90 SE8       30.09F
PLATTSBURGH    LGT RAIN  51  45  79 S5        30.17F
$$

NYZ001>004-010>016-019>021-085-252100-
WEST


CITY           SKY/WX    TMP DP  RH WIND       PRES   REMARKS
NIAGARA FALLS  CLOUDY    63  54  72 NE9       29.90S
BUFFALO        CLOUDY    62  53  72 E9        29.89F
DUNKIRK        PTSUNNY   57  52  83 NW7       29.87F
JAMESTOWN      CLOUDY    63  52  67 N5        29.86F
WELLSVILLE     CLOUDY    61  49  64 SE14G21   29.93F
ROCHESTER      CLOUDY    63  52  67 SE14      29.94F
PENN YAN       CLOUDY    63  49  60 SE10G17   29.96F
$$

             KEY
       WCI = WIND CHILL INDEX
       VSB = VISIBILITY
       HX  = HEAT INDEX
$$




USA.gov is the U.S. government's official web portal to all federal, state and local government web resources and services.